User: anonymous   Login
Location: Newark
(51.0000°N, 11.4100°E)
Time: 02:30:41
(UTC+00:00)
Language:

Vanguard 2 Rocket - Orbit

View from above orbital plane
View from above orbital plane
View from above satellite
View from above satellite

Ground track
Ground track

The orbit data is extracted from the following two-line orbital elements,

1    12U 59001B   19326.50310563  .00000034  00000-0  27172-4 0  9992
2    12  32.9012 358.5084 1666070  62.6626 313.3625 11.44315412498739
Epoch (UTC): 22 November 2019 12:04:28
Eccentricity: 0.1666070
inclination: 32.9012°
perigee height: 554 km
apogee height: 3326 km
right ascension of ascending node: 358.5084°
argument of perigee: 62.6626°
revolutions per day: 11.44315412
mean anomaly at epoch: 313.3625°
orbit number at epoch: 49873

The dashed part of the orbit path shows where the satellite is in the earth's shadow,  

DLR